• In Netherlands
  • List of Countries
  • For 7 days
  • Water Temperature
  • Satellite Maps
  • Weather Map
  • Weather Widgets
  • user-avatar
    Login

    Hourly Weather Ali Bayramli

    Today, 24 January, Tuesday

    Time Temperature Precipitation Wind Pressure Humidity
    00:00 +3°C° 0 mm 1 mps 772 mmHg 74%
    01:00 +3°C° 0 mm 1 mps 772 mmHg 74%
    02:00 +2°C° 0 mm 1 mps 771 mmHg 74%
    03:00 +2°C° 0 mm 1 mps 771 mmHg 73%
    04:00 +2°C° 0 mm 1 mps 771 mmHg 74%
    05:00 +2°C° 0 mm 1 mps 771 mmHg 74%
    06:00 +2°C° 0 mm 1 mps 771 mmHg 74%
    07:00 +3°C° 0 mm 1 mps 771 mmHg 70%
    08:00 +5°C° 0 mm 1 mps 771 mmHg 65%
    09:00 +5°C° 0 mm 2 mps 771 mmHg 60%
    10:00 +6°C° 0 mm 2 mps 771 mmHg 57%
    11:00 +7°C° 0 mm 2 mps 770 mmHg 53%
    12:00 +8°C° 0 mm 3 mps 770 mmHg 50%
    13:00 +8°C° 0 mm 3 mps 769 mmHg 49%
    14:00 +9°C° 0 mm 3 mps 769 mmHg 48%
    15:00 +9°C° 0 mm 3 mps 768 mmHg 46%
    16:00 +7°C° 0 mm 3 mps 768 mmHg 54%
    17:00 +5°C° 0 mm 3 mps 768 mmHg 61%
    18:00 +4°C° 0 mm 3 mps 768 mmHg 68%
    19:00 +3°C° 0 mm 3 mps 767 mmHg 72%
    20:00 +3°C° 0 mm 3 mps 767 mmHg 75%
    21:00 +2°C° 0 mm 3 mps 766 mmHg 78%
    22:00 +2°C° 0 mm 3 mps 765 mmHg 79%
    23:00 +2°C° 0 mm 3 mps 765 mmHg 80%

    Tomorrow, 25 January, Wednesday

    Time Temperature Precipitation Wind Pressure Humidity
    00:00 +2°C° 0 mm 3 mps 764 mmHg 82%
    01:00 +2°C° 0 mm 3 mps 763 mmHg 79%
    02:00 +1°C° 0 mm 3 mps 763 mmHg 77%
    03:00 +1°C° 0 mm 3 mps 762 mmHg 74%
    04:00 +1°C° 0 mm 3 mps 762 mmHg 71%
    05:00 +1°C° 0 mm 3 mps 761 mmHg 68%
    06:00 -1°C° 0 mm 4 mps 761 mmHg 65%
    07:00 0°C° 0 mm 4 mps 761 mmHg 63%
    08:00 +1°C° 0 mm 4 mps 760 mmHg 61%
    09:00 +3°C° 0 mm 4 mps 760 mmHg 59%
    10:00 +4°C° 0 mm 4 mps 760 mmHg 52%
    11:00 +6°C° 0 mm 4 mps 759 mmHg 46%
    12:00 +7°C° 0 mm 4 mps 759 mmHg 39%
    13:00 +8°C° 0 mm 4 mps 758 mmHg 37%
    14:00 +9°C° 0 mm 3 mps 758 mmHg 35%
    15:00 +9°C° 0 mm 3 mps 758 mmHg 33%
    16:00 +8°C° 0 mm 2 mps 757 mmHg 37%
    17:00 +7°C° 0 mm 1 mps 757 mmHg 41%
    18:00 +6°C° 0 mm 1 mps 757 mmHg 45%
    19:00 +6°C° 0 mm 1 mps 757 mmHg 45%
    20:00 +5°C° 0 mm 1 mps 757 mmHg 45%
    21:00 +5°C° 0 mm 1 mps 756 mmHg 45%
    22:00 +5°C° 0 mm 1 mps 756 mmHg 45%
    23:00 +5°C° 0 mm 1 mps 756 mmHg 45%

    Day after tomorrow, 26 January, Thursday

    Time Temperature Precipitation Wind Pressure Humidity
    00:00 +4°C° 0 mm 2 mps 756 mmHg 45%
    01:00 +3°C° 0 mm 2 mps 756 mmHg 44%
    02:00 +3°C° 0 mm 2 mps 756 mmHg 43%
    03:00 +3°C° 0 mm 2 mps 756 mmHg 42%
    04:00 +3°C° 0 mm 2 mps 756 mmHg 43%
    05:00 +3°C° 0 mm 2 mps 756 mmHg 44%
    06:00 +2°C° 0 mm 2 mps 756 mmHg 45%
    07:00 +3°C° 0 mm 2 mps 756 mmHg 48%
    08:00 +4°C° 0 mm 2 mps 757 mmHg 50%
    09:00 +5°C° 0 mm 2 mps 757 mmHg 52%
    10:00 +7°C° 0 mm 2 mps 757 mmHg 51%
    11:00 +8°C° 0 mm 2 mps 757 mmHg 49%
    12:00 +9°C° 0 mm 2 mps 757 mmHg 48%
    13:00 +9°C° 0 mm 2 mps 757 mmHg 48%
    14:00 +9°C° 0 mm 3 mps 757 mmHg 48%
    15:00 +9°C° 0 mm 3 mps 757 mmHg 48%
    16:00 +7°C° 0 mm 4 mps 758 mmHg 57%
    17:00 +6°C° 0 mm 4 mps 758 mmHg 65%
    18:00 +3°C° 0 mm 5 mps 759 mmHg 73%
    19:00 +3°C° 0 mm 5 mps 759 mmHg 75%
    20:00 +3°C° 0 mm 5 mps 760 mmHg 76%
    21:00 +2°C° 0 mm 6 mps 760 mmHg 78%
    22:00 +2°C° 0 mm 5 mps 761 mmHg 78%
    23:00 +2°C° 0 mm 5 mps 761 mmHg 78%

    27 January, Friday

    Time Temperature Precipitation Wind Pressure Humidity
    00:00 +1°C° 0 mm 5 mps 761 mmHg 78%
    01:00 +1°C° 0 mm 5 mps 761 mmHg 79%
    02:00 +1°C° 0 mm 5 mps 762 mmHg 81%
    03:00 +1°C° 0 mm 5 mps 762 mmHg 82%
    04:00 +1°C° 0 mm 5 mps 762 mmHg 82%
    05:00 +1°C° 0 mm 5 mps 762 mmHg 82%
    06:00 +1°C° 0 mm 5 mps 763 mmHg 82%
    07:00 +1°C° 0.1 mm 5 mps 763 mmHg 79%
    08:00 +2°C° 0.1 mm 6 mps 763 mmHg 77%
    09:00 +2°C° 0.1 mm 6 mps 764 mmHg 74%
    10:00 +3°C° 0 mm 7 mps 763 mmHg 71%
    11:00 +3°C° 0 mm 7 mps 763 mmHg 67%
    12:00 +3°C° 0 mm 7 mps 763 mmHg 64%
    13:00 +3°C° 0 mm 7 mps 762 mmHg 64%
    14:00 +3°C° 0 mm 7 mps 762 mmHg 64%
    15:00 +3°C° 0 mm 7 mps 762 mmHg 64%
    16:00 +2°C° 0.1 mm 7 mps 762 mmHg 67%
    17:00 0°C° 0.1 mm 7 mps 763 mmHg 70%
    18:00 0°C° 0.1 mm 7 mps 763 mmHg 72%
    19:00 0°C° 0.1 mm 7 mps 763 mmHg 73%
    20:00 0°C° 0.1 mm 7 mps 763 mmHg 73%
    21:00 -1°C° 0.1 mm 7 mps 763 mmHg 74%
    22:00 -1°C° 0.1 mm 7 mps 763 mmHg 74%
    23:00 -1°C° 0.1 mm 6 mps 763 mmHg 74%

    28 January, Saturday

    Time Temperature Precipitation Wind Pressure Humidity
    00:00 -1°C° 0.1 mm 6 mps 763 mmHg 75%
    01:00 0°C° 0 mm 5 mps 763 mmHg 76%
    02:00 0°C° 0 mm 5 mps 763 mmHg 77%
    03:00 0°C° 0 mm 5 mps 762 mmHg 78%
    04:00 0°C° 0 mm 5 mps 762 mmHg 78%
    05:00 0°C° 0 mm 5 mps 762 mmHg 79%
    06:00 0°C° 0 mm 5 mps 762 mmHg 79%
    07:00 +1°C° 0.1 mm 5 mps 762 mmHg 78%
    08:00 +1°C° 0.1 mm 5 mps 762 mmHg 77%
    09:00 +1°C° 0.1 mm 5 mps 762 mmHg 77%
    10:00 +1°C° 0.3 mm 5 mps 762 mmHg 78%
    11:00 +2°C° 0.3 mm 5 mps 761 mmHg 78%
    12:00 +2°C° 0.3 mm 5 mps 761 mmHg 79%
    13:00 +2°C° 0.6 mm 5 mps 760 mmHg 82%
    14:00 +2°C° 0.6 mm 5 mps 760 mmHg 84%
    15:00 +3°C° 0.6 mm 5 mps 759 mmHg 87%
    16:00 +2°C° 0.5 mm 5 mps 760 mmHg 87%
    17:00 +2°C° 0.5 mm 5 mps 760 mmHg 88%
    18:00 +2°C° 0.5 mm 5 mps 760 mmHg 89%
    19:00 +3°C° 0.8 mm 4 mps 760 mmHg 90%
    20:00 +3°C° 0.8 mm 4 mps 760 mmHg 91%
    21:00 +3°C° 0.8 mm 4 mps 760 mmHg 91%
    22:00 +3°C° 0.7 mm 4 mps 760 mmHg 92%
    23:00 +3°C° 0.7 mm 4 mps 759 mmHg 92%

    29 January, Sunday

    Time Temperature Precipitation Wind Pressure Humidity
    00:00 +3°C° 0.7 mm 4 mps 759 mmHg 92%
    01:00 +3°C° 1 mm 4 mps 759 mmHg 93%
    02:00 +1°C° 1 mm 4 mps 759 mmHg 93%
    03:00 +1°C° 1 mm 4 mps 759 mmHg 93%
    04:00 +1°C° 1.3 mm 5 mps 759 mmHg 94%
    05:00 +1°C° 1.3 mm 5 mps 760 mmHg 94%
    06:00 +1°C° 1.3 mm 5 mps 760 mmHg 94%
    07:00 0°C° 0.9 mm 5 mps 760 mmHg 93%
    08:00 -1°C° 0.9 mm 6 mps 761 mmHg 93%
    09:00 -1°C° 0.9 mm 6 mps 761 mmHg 93%
    10:00 -1°C° 0.2 mm 6 mps 761 mmHg 92%
    11:00 +1°C° 0.2 mm 6 mps 761 mmHg 92%
    12:00 +1°C° 0.2 mm 6 mps 761 mmHg 91%
    13:00 +1°C° 0.1 mm 5 mps 761 mmHg 90%
    14:00 +1°C° 0.1 mm 5 mps 761 mmHg 89%
    15:00 +1°C° 0.1 mm 4 mps 761 mmHg 87%
    16:00 +1°C° 0 mm 4 mps 762 mmHg 86%
    17:00 0°C° 0 mm 4 mps 762 mmHg 86%
    18:00 0°C° 0 mm 4 mps 763 mmHg 85%
    19:00 -1°C° 0 mm 4 mps 763 mmHg 84%
    20:00 -2°C° 0 mm 4 mps 763 mmHg 83%
    21:00 -2°C° 0 mm 4 mps 764 mmHg 83%
    22:00 -3°C° 0 mm 4 mps 764 mmHg 81%
    23:00 -3°C° 0 mm 4 mps 764 mmHg 80%
    Show more